sat.trackr.live / text

‹ back to catalog

STARLINK-2280

NORAD 47861 · 2021-021B

PAYLOAD ACTIVE UNKNOWN

§ Identity

Operator
Country
US
Launch date
2021-03-14
Launch site
AFETR
Launch vehicle
Mass (kg)
RCS (m²)

Purposes: comms

External: N2YO · Heavens-Above · Gunter

§ Orbital elements

Epoch: 2026-09-15T22:04:32.886912Z

Period
94.01 min
Inclination
53.1597°
Eccentricity
0.0001236
Mean motion
15.31707512 rev/d
Perigee alt
469.9 km
Apogee alt
471.6 km
Semi-major
6,848.9 km
B*
2.3424e-5
RAAN
93.0281°
Arg perigee
111.7864°
Mean anomaly
248.3269°
Rev number
30,554

§ Raw data

STARLINK-22801 47861U 21021B   26258.91982508  .00000362  00000+0  23424-4 0  99962 47861  53.1597  93.0281 0001236 111.7864 248.3269 15.31707512305544

JSON: /api/v1/satellites/47861 · /tle

For live sub-satellite position, see the globe view (requires WebGL).

§ Visibility from observer

Set your observer location to see the next 7 days of passes ≥ 10°. The values pass through the URL so the page stays shareable.

No JS? Fill the form by hand. The geolocation button needs JavaScript.